Location: Peebles
(55.6412°N, 3.1714°W)
Time: 18:00:05
(UTC+00:00)

COSMOS 2251 DEB - Visible Passes

Search period start: 28 November 2022 00:00
Search period end: 08 December 2022 00:00
Orbit: 736 x 877 km, 74.2° (Epoch: 28 November)

Date Brightness Start Highest point End Pass type
(mag) Time Alt. Az. Time Alt. Az. Time Alt. Az.
28 Nov ? 03:35:40 12° N 03:35:40 12° N 03:36:24 10° NNE visible
28 Nov ? 05:16:44 10° NNW 05:18:40 12° N 05:20:50 10° NNE visible
28 Nov ? 06:59:39 10° NNW 07:03:55 21° NNE 07:08:05 10° E visible
29 Nov ? 03:10:41 11° NNE 03:10:41 11° NNE 03:10:53 10° NNE visible
29 Nov ? 04:51:46 11° N 04:52:45 12° N 04:54:48 10° NNE visible
29 Nov ? 06:34:11 10° NNW 06:38:08 19° NNE 06:41:59 10° ENE visible
30 Nov ? 04:26:47 12° N 04:26:52 12° N 04:28:52 10° NNE visible
30 Nov ? 06:08:42 10° NNW 06:12:19 17° NNE 06:15:51 10° ENE visible
01 Dec ? 04:01:48 12° N 04:01:48 12° N 04:03:02 10° NNE visible
01 Dec ? 05:43:13 10° NNW 05:46:29 15° NNE 05:49:42 10° ENE visible
01 Dec ? 07:25:53 10° NNW 07:31:07 38° NE 07:36:07 10° ESE visible
02 Dec ? 03:36:49 11° N 03:36:49 11° N 03:37:19 10° NNE visible
02 Dec ? 05:17:53 10° NNW 05:20:37 14° NNE 05:23:30 10° NE visible
02 Dec ? 07:00:25 10° NNW 07:05:25 32° NE 07:10:15 10° ESE visible
03 Dec ? 04:52:55 11° N 04:54:45 13° NNE 04:57:18 10° NE visible
03 Dec ? 06:34:56 10° NNW 06:39:43 27° NE 06:44:19 10° E visible
04 Dec ? 04:27:56 12° N 04:28:51 12° N 04:31:06 10° NE visible
04 Dec ? 06:09:28 10° NNW 06:13:58 24° NE 06:18:19 10° E visible
05 Dec ? 04:02:58 12° N 04:02:58 12° N 04:04:57 10° NNE visible
05 Dec ? 05:44:03 10° NNW 05:48:11 21° NNE 05:52:15 10° E visible
05 Dec ? 07:26:40 10° NNW 07:32:12 66° ENE 07:37:29 10° SE visible
06 Dec ? 03:38:00 11° NNE 03:38:00 11° NNE 03:38:52 10° NNE visible
06 Dec ? 05:19:05 12° N 05:22:23 19° NNE 05:26:09 10° ENE visible
06 Dec ? 07:01:09 10° NNW 07:06:36 54° NE 07:11:48 10° SE visible
07 Dec ? 04:54:08 13° N 04:56:33 17° NNE 04:59:59 10° ENE visible
07 Dec ? 06:35:39 10° NNW 06:40:57 45° NE 06:46:03 10° SE visible
